When you browse on this site, cookies collect data to enhance your experience and personalize the content and advertising you see.
Visit our Privacy Policy to learn more. By continuing to use the site, you agree to this use of cookies and data.
  • In Germany
  • List of Countries
  • For 7 days
  • Water Temperature
  • Satellite Maps
  • Weather Map
  • Weather Widgets
  • user-avatar
    Login

    Hourly Weather Ordino

    Today, 25 May, Saturday

    Time Temperature Precipitation Wind Pressure Humidity
    00:00 +5°C° 1 mm 3 mps 631 mmHg 97%
    01:00 +5°C° 1 mm 3 mps 631 mmHg 97%
    02:00 +5°C° 1 mm 3 mps 631 mmHg 97%
    03:00 +6°C° 1 mm 2 mps 631 mmHg 97%
    04:00 +6°C° 0.7 mm 2 mps 631 mmHg 96%
    05:00 +6°C° 0.7 mm 2 mps 631 mmHg 96%
    06:00 +5°C° 0.7 mm 3 mps 632 mmHg 96%
    07:00 +5°C° 0.9 mm 3 mps 632 mmHg 94%
    08:00 +7°C° 0.9 mm 3 mps 632 mmHg 93%
    09:00 +7°C° 0.9 mm 3 mps 633 mmHg 92%
    10:00 +7°C° 0.5 mm 3 mps 633 mmHg 89%
    11:00 +8°C° 0.5 mm 3 mps 633 mmHg 86%
    12:00 +8°C° 0.5 mm 3 mps 633 mmHg 84%
    13:00 +9°C° 0 mm 3 mps 633 mmHg 79%
    14:00 +10°C° 0 mm 3 mps 633 mmHg 74%
    15:00 +11°C° 0 mm 3 mps 633 mmHg 70%
    16:00 +10°C° 0 mm 3 mps 633 mmHg 73%
    17:00 +10°C° 0 mm 3 mps 633 mmHg 76%
    18:00 +9°C° 0 mm 3 mps 633 mmHg 80%
    19:00 +8°C° 0.1 mm 3 mps 633 mmHg 83%
    20:00 +7°C° 0.1 mm 3 mps 633 mmHg 87%
    21:00 +5°C° 0.1 mm 3 mps 633 mmHg 90%
    22:00 +5°C° 0 mm 3 mps 633 mmHg 91%
    23:00 +5°C° 0 mm 3 mps 633 mmHg 91%

    Tomorrow, 26 May, Sunday

    Time Temperature Precipitation Wind Pressure Humidity
    00:00 +5°C° 0 mm 3 mps 633 mmHg 92%
    01:00 +6°C° 0 mm 2 mps 632 mmHg 92%
    02:00 +5°C° 0 mm 2 mps 632 mmHg 92%
    03:00 +5°C° 0 mm 2 mps 632 mmHg 93%
    04:00 +5°C° 0 mm 2 mps 632 mmHg 89%
    05:00 +6°C° 0 mm 2 mps 632 mmHg 86%
    06:00 +6°C° 0 mm 2 mps 633 mmHg 83%
    07:00 +7°C° 0 mm 3 mps 633 mmHg 79%
    08:00 +9°C° 0 mm 3 mps 634 mmHg 75%
    09:00 +10°C° 0 mm 3 mps 634 mmHg 71%
    10:00 +10°C° 0 mm 3 mps 634 mmHg 70%
    11:00 +11°C° 0 mm 3 mps 634 mmHg 68%
    12:00 +11°C° 0 mm 3 mps 634 mmHg 67%
    13:00 +12°C° 0 mm 3 mps 634 mmHg 63%
    14:00 +13°C° 0 mm 3 mps 634 mmHg 60%
    15:00 +13°C° 0 mm 4 mps 634 mmHg 57%
    16:00 +12°C° 0 mm 3 mps 634 mmHg 62%
    17:00 +11°C° 0 mm 3 mps 633 mmHg 66%
    18:00 +10°C° 0 mm 3 mps 633 mmHg 71%
    19:00 +9°C° 0 mm 2 mps 633 mmHg 77%
    20:00 +8°C° 0 mm 2 mps 632 mmHg 83%
    21:00 +7°C° 0 mm 2 mps 632 mmHg 89%
    22:00 +7°C° 0.2 mm 2 mps 632 mmHg 89%
    23:00 +7°C° 0.2 mm 2 mps 632 mmHg 89%

    Day after tomorrow, 27 May, Monday

    Time Temperature Precipitation Wind Pressure Humidity
    00:00 +8°C° 0.2 mm 2 mps 632 mmHg 89%
    01:00 +7°C° 0 mm 2 mps 632 mmHg 91%
    02:00 +7°C° 0 mm 2 mps 631 mmHg 92%
    03:00 +7°C° 0 mm 2 mps 631 mmHg 93%
    04:00 +7°C° 0 mm 2 mps 631 mmHg 91%
    05:00 +7°C° 0 mm 2 mps 631 mmHg 88%
    06:00 +8°C° 0 mm 2 mps 631 mmHg 86%
    07:00 +9°C° 0 mm 2 mps 632 mmHg 79%
    08:00 +12°C° 0 mm 2 mps 633 mmHg 72%
    09:00 +14°C° 0 mm 2 mps 633 mmHg 65%
    10:00 +15°C° 0 mm 2 mps 633 mmHg 61%
    11:00 +16°C° 0 mm 3 mps 634 mmHg 57%
    12:00 +17°C° 0 mm 3 mps 634 mmHg 52%
    13:00 +17°C° 0.1 mm 3 mps 633 mmHg 56%
    14:00 +16°C° 0.1 mm 2 mps 633 mmHg 59%
    15:00 +16°C° 0.1 mm 2 mps 632 mmHg 62%
    16:00 +14°C° 0.1 mm 2 mps 632 mmHg 68%
    17:00 +13°C° 0.1 mm 2 mps 631 mmHg 74%
    18:00 +12°C° 0.1 mm 2 mps 631 mmHg 81%
    19:00 +10°C° 0 mm 2 mps 631 mmHg 84%
    20:00 +8°C° 0 mm 2 mps 631 mmHg 87%
    21:00 +7°C° 0 mm 2 mps 631 mmHg 91%
    22:00 +7°C° 0 mm 2 mps 631 mmHg 91%
    23:00 +6°C° 0 mm 2 mps 630 mmHg 91%

    28 May, Tuesday

    Time Temperature Precipitation Wind Pressure Humidity
    00:00 +5°C° 0 mm 2 mps 630 mmHg 90%
    01:00 +5°C° 0 mm 2 mps 630 mmHg 90%
    02:00 +6°C° 0 mm 2 mps 630 mmHg 90%
    03:00 +6°C° 0 mm 2 mps 629 mmHg 90%
    04:00 +6°C° 0 mm 2 mps 630 mmHg 89%
    05:00 +7°C° 0 mm 2 mps 630 mmHg 88%
    06:00 +7°C° 0 mm 2 mps 631 mmHg 87%
    07:00 +8°C° 0 mm 2 mps 631 mmHg 78%
    08:00 +9°C° 0 mm 2 mps 632 mmHg 69%
    09:00 +10°C° 0 mm 2 mps 632 mmHg 60%
    10:00 +11°C° 0 mm 3 mps 632 mmHg 55%
    11:00 +12°C° 0 mm 3 mps 633 mmHg 50%
    12:00 +13°C° 0 mm 3 mps 633 mmHg 45%
    13:00 +13°C° 0 mm 3 mps 633 mmHg 47%
    14:00 +13°C° 0 mm 3 mps 633 mmHg 48%
    15:00 +13°C° 0 mm 3 mps 633 mmHg 50%
    16:00 +11°C° 0.1 mm 3 mps 632 mmHg 57%
    17:00 +8°C° 0.1 mm 4 mps 632 mmHg 64%
    18:00 +7°C° 0.1 mm 4 mps 631 mmHg 71%
    19:00 +5°C° 0 mm 4 mps 631 mmHg 75%
    20:00 +4°C° 0 mm 3 mps 631 mmHg 79%
    21:00 +3°C° 0 mm 3 mps 632 mmHg 83%
    22:00 +3°C° 0 mm 3 mps 632 mmHg 84%
    23:00 +2°C° 0 mm 3 mps 632 mmHg 85%

    29 May, Wednesday

    Time Temperature Precipitation Wind Pressure Humidity
    00:00 +2°C° 0 mm 3 mps 632 mmHg 86%
    01:00 +2°C° 0 mm 3 mps 632 mmHg 86%
    02:00 +1°C° 0 mm 3 mps 632 mmHg 85%
    03:00 +1°C° 0 mm 3 mps 632 mmHg 85%
    04:00 +1°C° 0 mm 3 mps 632 mmHg 81%
    05:00 +2°C° 0 mm 3 mps 633 mmHg 77%
    06:00 +2°C° 0 mm 3 mps 633 mmHg 74%
    07:00 +4°C° 0 mm 3 mps 634 mmHg 68%
    08:00 +5°C° 0 mm 3 mps 634 mmHg 62%
    09:00 +7°C° 0 mm 4 mps 635 mmHg 56%
    10:00 +8°C° 0 mm 4 mps 635 mmHg 52%
    11:00 +10°C° 0 mm 4 mps 636 mmHg 47%
    12:00 +11°C° 0 mm 4 mps 636 mmHg 43%
    13:00 +11°C° 0 mm 4 mps 636 mmHg 45%
    14:00 +11°C° 0 mm 4 mps 636 mmHg 46%
    15:00 +11°C° 0 mm 4 mps 636 mmHg 48%
    16:00 +10°C° 0 mm 4 mps 636 mmHg 54%
    17:00 +8°C° 0 mm 4 mps 636 mmHg 59%
    18:00 +8°C° 0 mm 3 mps 635 mmHg 65%
    19:00 +5°C° 0 mm 3 mps 636 mmHg 73%
    20:00 +4°C° 0 mm 3 mps 636 mmHg 81%
    21:00 +3°C° 0 mm 2 mps 636 mmHg 88%
    22:00 +3°C° 0 mm 2 mps 636 mmHg 89%
    23:00 +3°C° 0 mm 2 mps 636 mmHg 90%

    30 May, Thursday

    Time Temperature Precipitation Wind Pressure Humidity
    00:00 +3°C° 0 mm 2 mps 636 mmHg 90%
    01:00 +3°C° 0 mm 2 mps 636 mmHg 91%
    02:00 +3°C° 0 mm 2 mps 636 mmHg 91%
    03:00 +3°C° 0 mm 2 mps 636 mmHg 91%
    04:00 +4°C° 0 mm 2 mps 636 mmHg 87%
    05:00 +5°C° 0 mm 2 mps 637 mmHg 82%
    06:00 +6°C° 0 mm 2 mps 637 mmHg 78%
    07:00 +8°C° 0 mm 3 mps 638 mmHg 66%
    08:00 +10°C° 0 mm 3 mps 639 mmHg 55%
    09:00 +12°C° 0 mm 3 mps 640 mmHg 44%
    10:00 +13°C° 0 mm 3 mps 640 mmHg 40%
    11:00 +14°C° 0 mm 3 mps 640 mmHg 36%
    12:00 +17°C° 0 mm 3 mps 640 mmHg 32%
    13:00 +17°C° 0 mm 3 mps 640 mmHg 34%
    14:00 +17°C° 0 mm 3 mps 640 mmHg 35%
    15:00 +17°C° 0 mm 3 mps 640 mmHg 36%
    16:00 +16°C° 0 mm 3 mps 639 mmHg 44%
    17:00 +14°C° 0 mm 2 mps 639 mmHg 52%
    18:00 +13°C° 0 mm 2 mps 639 mmHg 59%
    19:00 +10°C° 0 mm 2 mps 638 mmHg 69%
    20:00 +8°C° 0 mm 2 mps 638 mmHg 78%
    21:00 +6°C° 0 mm 2 mps 637 mmHg 88%
    22:00 +6°C° 0 mm 2 mps 637 mmHg 83%
    23:00 +5°C° 0 mm 2 mps 637 mmHg 78%
    Show more